星链-30937 (STARLINK-30937 )

导读

STARLINK-30937是美国太空探索技术公司Starlink星链互联网星座的卫星,于2023年11月20日发射,属于星链星座扩容的组网卫星。星链星座旨在为全球提供覆盖偏远地区的高速卫星互联网服务,该卫星入轨后承担卫星互联网信号转发任务,助力全球低轨卫星通信网络的搭建。

Basic Information
目录编号:
58392
目录名称:
STARLINK-30937
国际标识:
2023-178U
轨道中心:
EARTH
卫星名称:
星链-30937
卫星全名:
星链-30937 (STARLINK-30937 )
卫星状态:
已陨落 最后检测时间 2025-09-25
发射日期:
2023-11-20 UTC
国别 :
美国 (US)
星等 :
--
Orbit Information
数据来源 国际轨道数据
星历时间: 2025-09-25T09:20:31+0800
轨道信息已过期266天
半长轴: 6588.69km
偏心率: 0.0015915
轨道倾角: 53.126°
近地点辐角 322.128°
升交点赤经 37.261°
平近点角 37.863°
近地点: 200.069km
远地点: 221.041km
周期: 88.707分钟
每日圈数: 16.233201
Detailed Information
固有亮度:
5
最大亮度:
0.3
卫星平台:
Starlink v2.0 mini
覆盖范围:
全球
运营商:
太空探索技术公司
运营商所在国:
美国
制造商(研发单位):
太空探索技术公司
制造商所在国:
美国
使用方式:
暂无
Satellite Introduction
星链(Starlink)计划是由太空探索技术公司(SpaceX)提出的一个巨型低轨卫星互联网星座项目,计划在2019年至2024年间在太空搭建由约1.2万颗卫星组成的“星链”网络,其中1584颗将部署在地球上空550千米处的近地轨道,并从2020年开始工作。该卫星仍在工作。